"Pseudo-MPEC" for P11oQil

Created 2021 Dec 1 23:07:30 UT using Find_Orb

Click here for an explanation of pseudo-MPECs

 
 Astrometry: 
     P11oQil  C2021 11 11]BqF\?*w+3t`P4l.Z_Eg1;I5idUi'leR9!qwxVneAstrometry*2F51
     P11oQil  C2021 11 11K[rC4Wi!B^$XMhgpI4[!M\L$5)r3^H_RlM/[O+s-cFvredacted;F51
     P11oQil  C2021 11 11+=E?RGF5s$click$VQXherej5^lN6^ys++forl8HmhS04L5L+bQ/F51
     P11oQil  C2021 11 11?(hcqUFq:p3aUZS$MB17V8SEd_-;nw6io=explanationEoh9K82F51

Station data:
(F51) Pan-STARRS 1, Haleakala  (N20.707235 W156.255910)  US/Hawaii.
   Observers N. Primak, A. Schultz, S. Watters, J. Thiel, T. Goggia. Measurer
   PS1 Science Consortium. 1.8-m Ritchey-Chrétien + CCD.

Orbital elements:  P11oQil
   Perihelion 2022 Feb 19.620139 +/- 9.04137 TT = 14:53:00 (JD 2459630.120139)
Epoch 2021 Nov 11.0 TT = JDT 2459529.5   Earth MOID: 0.0113   AutoNEOCP
M 259.37961110 +/- 9.7998327        (J2000 ecliptic)
n   1.00000248 +/- 0.00784523       Peri.  293.65336 +/- 7.1964550
a   0.99038031 +/- 0.00517971       Node   220.61231 +/- 1.4743203
e   0.0465445 +/- 0.00939725        Incl.    2.11127 +/- 0.4589260
P   0.99/359.99d           H 29.9   G  0.15   U  9.5  
q 0.94428346 +/- 0.00527462    Q 1.03647715 +/- 0.014426
From 4 observations 2021 Nov. 11 (4.0 hr); mean residual 0".15
Residuals in arcseconds: 
211111 F51  .09+  .05+    211111 F51  .16+  .17+    
211111 F51  .25-  .22-    211111 F51  .00   .01-    

Ephemerides (geocentric):
Date (UTC) HH   RA              Dec         delta   r     elong  mag " sig PA
---- -- -- --  -------------   -----------  ------ ------ -----  --- ---- ---
2021 12 01 23  01 46 43.394   -72 45 46.77  .01772 .98351  81.4 24.6 611'  19
2021 12 02 00  01 46 19.512   -72 49 39.11  .01775 .98348  81.3 24.6 612'  19
2021 12 02 01  01 45 55.510   -72 53 30.69  .01777 .98344  81.2 24.6 613'  20
2021 12 02 02  01 45 31.388   -72 57 21.51  .01779 .98341  81.1 24.6 614'  20
2021 12 02 03  01 45 07.145   -73 01 11.58  .01781 .98337  81.1 24.6 615'  20
2021 12 02 04  01 44 42.780   -73 05 00.90  .01784 .98334  81.0 24.6 616'  20
2021 12 02 05  01 44 18.293   -73 08 49.46  .01786 .98330  80.9 24.7 617'  20
2021 12 02 06  01 43 53.682   -73 12 37.28  .01788 .98327  80.8 24.7 618'  20
2021 12 02 07  01 43 28.947   -73 16 24.34  .01790 .98323  80.7 24.7 619'  20
2021 12 02 08  01 43 04.087   -73 20 10.65  .01793 .98320  80.6 24.7 620'  20
2021 12 02 09  01 42 39.102   -73 23 56.22  .01795 .98316  80.6 24.7 621'  20
2021 12 02 10  01 42 13.990   -73 27 41.04  .01797 .98313  80.5 24.7 622'  20
2021 12 02 11  01 41 48.751   -73 31 25.12  .01799 .98309  80.4 24.7 623'  21
2021 12 02 12  01 41 23.384   -73 35 08.46  .01802 .98306  80.3 24.7 624'  21
2021 12 02 13  01 40 57.888   -73 38 51.05  .01804 .98302  80.2 24.7 625'  21
2021 12 02 14  01 40 32.263   -73 42 32.91  .01806 .98299  80.2 24.7 626'  21
2021 12 02 15  01 40 06.507   -73 46 14.02  .01808 .98295  80.1 24.7 627'  21
2021 12 02 16  01 39 40.619   -73 49 54.40  .01810 .98292  80.0 24.7 628'  21
2021 12 02 17  01 39 14.600   -73 53 34.04  .01813 .98288  79.9 24.7 629'  21
2021 12 02 18  01 38 48.447   -73 57 12.95  .01815 .98285  79.8 24.7 630'  21
2021 12 02 19  01 38 22.161   -74 00 51.13  .01817 .98281  79.8 24.7 630'  21
2021 12 02 20  01 37 55.740   -74 04 28.57  .01819 .98278  79.7 24.7 631'  22
2021 12 02 21  01 37 29.184   -74 08 05.28  .01822 .98274  79.6 24.8 632'  22
2021 12 02 22  01 37 02.491   -74 11 41.26  .01824 .98271  79.5 24.8 633'  22
2021 12 02 23  01 36 35.661   -74 15 16.51  .01826 .98267  79.4 24.8 634'  22
2021 12 03 00  01 36 08.693   -74 18 51.03  .01828 .98264  79.4 24.8 635'  22
2021 12 03 01  01 35 41.586   -74 22 24.83  .01831 .98260  79.3 24.8 636'  22
2021 12 03 02  01 35 14.339   -74 25 57.90  .01833 .98257  79.2 24.8 637'  22
2021 12 03 03  01 34 46.952   -74 29 30.25  .01835 .98253  79.1 24.8 638'  22
2021 12 03 04  01 34 19.422   -74 33 01.88  .01837 .98250  79.0 24.8 639'  22
2021 12 03 05  01 33 51.751   -74 36 32.78  .01840 .98246  79.0 24.8 640'  23
2021 12 03 06  01 33 23.935   -74 40 02.97  .01842 .98243  78.9 24.8 641'  23
2021 12 03 07  01 32 55.976   -74 43 32.43  .01844 .98240  78.8 24.8 642'  23
2021 12 03 08  01 32 27.871   -74 47 01.18  .01847 .98236  78.7 24.8 643'  23
2021 12 03 09  01 31 59.620   -74 50 29.21  .01849 .98233  78.7 24.8 644'  23
2021 12 03 10  01 31 31.222   -74 53 56.52  .01851 .98229  78.6 24.8 645'  23
2021 12 03 11  01 31 02.675   -74 57 23.12  .01853 .98226  78.5 24.8 646'  23
2021 12 03 12  01 30 33.980   -75 00 49.00  .01856 .98222  78.4 24.8 647'  23
2021 12 03 13  01 30 05.135   -75 04 14.17  .01858 .98219  78.4 24.9 648'  24
2021 12 03 14  01 29 36.138   -75 07 38.63  .01860 .98215  78.3 24.9 649'  24
2021 12 03 15  01 29 06.990   -75 11 02.38  .01862 .98212  78.2 24.9 650'  24
2021 12 03 16  01 28 37.689   -75 14 25.41  .01865 .98208  78.1 24.9 651'  24
2021 12 03 17  01 28 08.234   -75 17 47.74  .01867 .98205  78.1 24.9 651'  24
2021 12 03 18  01 27 38.624   -75 21 09.36  .01869 .98201  78.0 24.9 652'  24
2021 12 03 19  01 27 08.859   -75 24 30.28  .01871 .98198  77.9 24.9 653'  24
2021 12 03 20  01 26 38.936   -75 27 50.48  .01874 .98194  77.8 24.9 654'  24
2021 12 03 21  01 26 08.856   -75 31 09.98  .01876 .98191  77.8 24.9 655'  25
2021 12 03 22  01 25 38.616   -75 34 28.78  .01878 .98187  77.7 24.9 656'  25